Regional Weather Roundup
Issued by NWS

Home | Current Version | Previous Version | Text Only | Print | Product List | Glossary Off
Versions: 1 2 3 4 5 6 7 8 9 10 11 12 13 14 15 16 17 18 19 20 21 22 23 24 25 26 27 28 29 30 31 32 33 34 35 36 37 38 39 40 41 42 43 44 45 46 47 48 49 50

434
ASUS45 KBOI 272110
RWRID

IDAHO REGIONAL WEATHER ROUNDUP
NATIONAL WEATHER SERVICE BOISE ID
300 PM MDT MON MAR 27 2017

NOTE: "FAIR" INDICATES FEW OR NO CLOUDS BELOW 12000 FEET
WITH NO SIGNIFICANT WEATHER AND/OR OBSTRUCTIONS TO VISIBILITY

IDZ012-014-272200-
SOUTHWEST IDAHO


CITY           SKY/WX    TMP DP  RH WIND       PRES   REMARKS
BOISE          MOSUNNY   54  34  46 NW21      30.01F
CALDWELL       MOSUNNY   54  33  45 W14       30.03S
MOUNTAIN HOME  MOSUNNY   54  33  44 NW21G30   30.00S
$$

IDZ016-017-272200-
SOUTHCENTRAL IDAHO


CITY           SKY/WX    TMP DP  RH WIND       PRES   REMARKS
BURLEY         LGT RAIN  49  33  54 W18G28    29.92F
JEROME         PTSUNNY   49  34  56 W23G32    29.95S
TWIN FALLS     PTSUNNY   49  33  54 W24G36    29.96S
$$

IDZ019>023-272200-
SOUTHEAST IDAHO


CITY           SKY/WX    TMP DP  RH WIND       PRES   REMARKS
IDAHO FALLS    CLOUDY    44  38  79 SW14      29.91R
POCATELLO      CLOUDY    44  37  76 SW13      29.93S
REXBURG        CLOUDY    42  38  85 NE5       29.90R
$$

IDZ006-010-011-018-031-032-272200-
CENTRAL IDAHO MOUNTAINS


CITY           SKY/WX    TMP DP  RH WIND       PRES   REMARKS
MCCALL         CLOUDY    39  27  62 NW5       29.98R
HAILEY         PTSUNNY   45  37  76 SE9       29.92S
STANLEY          N/A     40  20  44 N7        29.93S
SALMON         PTSUNNY   45  36  70 S3        29.92F
CHALLIS        MOSUNNY   48  25  40 S8        29.87S
$$

IDZ002-004-006-007-026-272200-
NORTHERN IDAHO


CITY           SKY/WX    TMP DP  RH WIND       PRES   REMARKS
LEWISTON       CLOUDY    55  34  45 NW12      30.05S
LOWELL           N/A     45  41  86 CALM      30.10R
COEUR D`ALENE  CLOUDY    48  35  60 W12       30.04R
MULLAN PASS    CLOUDY    29  28  96 VRB7      29.96R WCI  22
$$




USA.gov is the U.S. government's official web portal to all federal, state and local government web resources and services.